Orbital Elements at Epoch 2459200.5 (2020-Dec-17.0) TDB
Reference: JPL 20 (heliocentric ecliptic J2000)
Element | Value | Uncertainty (1-sigma) | Units |
e | .05581915632653196 | 4.9321e-08 | |
a | 1.972869280114587 | 1.0716e-08 | au |
q | 1.862745381356058 | 1.0014e-07 | au |
i | 17.63534539256295 | 9.0507e-06 | deg |
node | 337.7884525737705 | 1.9902e-05 | deg |
peri | 278.5995448733629 | 8.563e-05 | deg |
M | 72.42764325171056 | 8.252e-05 | deg |
tp | 2458996.867194138501 (2020-May-27.36719414) | 0.00023203 | TDB |
period | 1012.152360879259 2.77 | 8.2467e-06 2.258e-08 | d yr |
n | .3556776765182538 | 2.8979e-09 | deg/d |
Q | 2.082993178873116 | 1.1314e-08 | au |
|
| | Orbit Determination Parameters
Additional Information
|